La Grande, OR

10:24 PM PDT on October 23, 2019 (GMT -0700)
La Grande-Union County

Weather History for KLGD - August, 2019

Change the Weather History Date:

Saturday, August 10, 2019

  Actual Average Record
Temperature  
Mean Temperature 60 °F -  
Max Temperature 72 °F 85 °F 108 °F (2018)
Min Temperature 50 °F 49 °F 42 °F (1970)
Degree Days  
Heating Degree Days 5    
Growing Degree Days 10 (Base 50)    
Moisture  
Dew Point 54 °F    
Average Humidity 81    
Maximum Humidity 100    
Minimum Humidity 50    
Precipitation  
Precipitation 0.01 in - - ()
Sea Level Pressure  
Sea Level Pressure 30.33 in    
Wind  
Wind Speed 4 mph (North)    
Max Wind Speed 32 mph    
Max Gust Speed 39 mph    
Visibility 10 miles    
Events Rain , Thunderstorm    
Averages and records for this station are not official NWS values.
T = Trace of Precipitation, MM = Missing Value Source: NWS Daily Summary

Daily Weather History Graph

Daily Weather History Graph

Search for Another Location

Airport or City:

Astronomy

Aug. 10, 2019 Rise Set
Actual Time 5:46 AM PDT 8:07 PM PDT
Civil Twilight 5:14 AM PDT 8:39 PM PDT
Nautical Twilight 4:33 AM PDT 9:20 PM PDT
Astronomical Twilight 3:47 AM PDT 10:05 PM PDT
Moon 5:00 PM PDT (8/10) 1:22 AM PDT (8/10)
Length of Visible Light 15h 25m
Length of Day
14h 20m
Waxing Gibbous, 80% of the Moon is Illuminated
Aug 10
Waxing Gibbous
Aug 15
Full
Aug 23
Last Quarter
Aug 30
New
Sep 5
First Quarter

Hourly Weather History & Observations

Time (PDT) Temp. Dew Point Humidity Pressure Visibility Wind Dir Wind Speed Gust Speed Precip Events Conditions
12:56 AM 55.9 °F 55.0 °F 97% 30.34 in 10.0 mi Calm Calm - N/A   Clear
1:56 AM 55.0 °F 53.1 °F 93% 30.35 in 10.0 mi Variable 4.6 mph - N/A   Clear
2:56 AM 53.1 °F 52.0 °F 96% 30.35 in 10.0 mi NE 4.6 mph - N/A   Scattered Clouds
3:56 AM 54.0 °F 52.0 °F 93% 30.37 in 10.0 mi Calm Calm - N/A   Clear
4:56 AM 52.0 °F 51.1 °F 97% 30.36 in 10.0 mi East 3.5 mph - N/A   Clear
5:56 AM 50.0 °F 50.0 °F 100% 30.36 in 10.0 mi East 3.5 mph - N/A   Clear
6:56 AM 55.0 °F 53.1 °F 93% 30.38 in 10.0 mi NW 3.5 mph - N/A   Clear
7:56 AM 57.9 °F 54.0 °F 87% 30.37 in 10.0 mi Calm Calm - N/A   Clear
8:56 AM 62.1 °F 55.0 °F 78% 30.37 in 10.0 mi Calm Calm - N/A   Clear
9:56 AM 63.0 °F 55.9 °F 78% 30.37 in 10.0 mi Calm Calm - N/A   Clear
10:56 AM 66.9 °F 57.9 °F 73% 30.34 in 10.0 mi North 4.6 mph - N/A   Clear
11:56 AM 69.1 °F 55.0 °F 61% 30.34 in 10.0 mi Calm Calm - N/A   Clear
12:56 PM 70.0 °F 55.9 °F 61% 30.35 in 10.0 mi Calm Calm - N/A   Partly Cloudy
1:34 PM 69.8 °F 59.0 °F 68% 29.94 in 10.0 mi SE 6.9 mph - 0.00 in Rain , Thunderstorm Light Rain
1:56 PM 70.0 °F 57.0 °F 63% 30.34 in 10.0 mi NNW 5.8 mph - 0.00 in   Scattered Clouds
2:56 PM 70.0 °F 57.0 °F 63% 30.35 in 10.0 mi WNW 12.7 mph - N/A   Overcast
3:56 PM 64.0 °F 57.9 °F 80% 30.34 in 10.0 mi West 5.8 mph - 0.01 in Rain Light Rain
4:56 PM 68.0 °F 57.0 °F 68% 30.33 in 10.0 mi NNW 9.2 mph - 0.00 in   Clear
5:56 PM 68.0 °F 55.9 °F 65% 30.32 in 10.0 mi West 5.8 mph - N/A   Clear
6:56 PM 68.0 °F 48.9 °F 50% 30.35 in 10.0 mi SW 32.2 mph 39.1 mph N/A   Overcast
8:20 PM 55.4 °F 53.6 °F 94% 30.00 in 10.0 mi East 8.1 mph - N/A Rain Light Rain
8:56 PM 55.9 °F 53.1 °F 90% 30.41 in 10.0 mi SW 4.6 mph - N/A   Clear
9:56 PM 53.1 °F 51.1 °F 93% 30.40 in 10.0 mi NE 9.2 mph - N/A   Clear
10:56 PM 53.1 °F 52.0 °F 96% 30.42 in 10.0 mi Calm Calm - N/A   Clear
11:56 PM 53.1 °F 52.0 °F 96% 30.42 in 10.0 mi Calm Calm - N/A   Clear